星链-36915(STARLINK-36915)

导读

STARLINK-36915(NORAD编号68061)是美国太空探索技术公司(SpaceX)发射的星链(Starlink)星座中的一颗近地轨道通信卫星。星链星座旨在为全球提供高速宽带互联网服务,该卫星采用氩气离子推进系统实现轨道机动与脱轨,配备ku/ka波段相控阵天线保障高带宽连接,依靠双太阳能电池阵列供电,集成星跟踪器实现精确定位。作为星链卫星,它承担着为全球偏远地区、移动场景提供低延迟互联网连接的任务,助力构建全球覆盖的卫星互联网网格,目前该卫星正常在轨运行。

Basic Information
目录编号:
68061
目录名称:
STARLINK-36915
国际标识:
2026-041X
轨道中心:
EARTH
卫星名称:
星链-36915
卫星全名:
星链-36915(STARLINK-36915)
卫星状态:
在轨 (已飞行186 天)
发射日期:
2026-03-02 UTC
国别 :
美国 (US)
星等 :
--
Orbit Information
数据来源 国际轨道数据
星历时间: 2026-09-04T02:21:03+0800
8小时前
查看轨道信息
半长轴: 6840.848km
偏心率: 0.0001598
轨道倾角: 53.158°
近地点辐角 65.011°
升交点赤经 297.671°
平近点角 295.105°
近地点: 461.617km
远地点: 463.805km
周期: 93.848分钟
每日圈数: 15.343974
Detailed Information
固有亮度:
5
最大亮度:
2.5
卫星平台:
Starlink V1.0
覆盖范围:
全球
运营商:
太空探索技术公司
运营商所在国:
美国
制造商(研发单位):
太空探索技术公司
制造商所在国:
美国
使用方式:
暂无
Satellite Introduction
Starlink 计划是 SpaceX 推出的全球卫星互联网项目,通过发射低轨道卫星,为全球尤其是偏远地区提供高速、低延迟的互联网服务。自 2019 年起,Starlink 已部署数千颗卫星,旨在缩小全球数字鸿沟,推动互联网普及。该项目还为军事、航空等行业提供通信支持,带来广泛经济效益。
2D Orbit Map
3D Orbit Map
Orbit Altitude Analysis Chart
Orbit Inclination Analysis Chart
Orbit Comprehensive Analysis Chart
View Comprehensive Chart
Conjunction Data List
Event ID Objects TCA Miss Dist (km) Collision Risk Probability Collision Risk Index (CRI) Action
CDM_260903-171103-527006-806121
CZ-4 DEB (35270)
2026-09-03T
17:11:11+0000
1.825 km
极远距离
3.152935E-6 低风险 0.45
CDM_260905-130006-166706-806121
2026-09-05T
13:00:29+0000
1.506 km
极远距离
3.120908E-6 低风险 0.45
CDM_260905-104206-466906-806121
2026-09-05T
10:42:53+0000
1.841 km
极远距离
2.356987E-6 低风险 0.42
CDM_260905-090906-466906-806121
2026-09-05T
09:09:06+0000
2.670 km
极远距离
1.078452E-6 低风险 0.36